Flag for Russia Weather past 2 weeks in Yakutsk, Russia

Now
41 °F

Partly cloudy.


Feels Like: 36 °F
Forecast: 35 / 42 °F
Wind: 8 mph from Northwest

Location: Jakutsk

Current Time: Sep 22, 2014 at 3:18:11 AM

Latest Report: Sep 22, 2014 at 3:00 AM


Visibility: N/A

Pressure: 29.80 "Hg

Humidity: 81%

Dew point: 36 °F

Location of YakutskLocation

Historic Weather in Yakutsk — Graph

°F

Yakutsk temperature yesterday

Maximum temperature yesterday: 59 °F (at 1:30 PM)
Minimum temperature yesterday: 27 °F (at 3:30 AM)
Average temperature yesterday: 45 °F

Past Weeks' High & Low Weather Summary

 TemperatureHumidityPressure
High73 °F (Sep 9, 5:00 PM)100% (Sep 10, 11:30 PM)30.24 "Hg (Sep 10, 11:30 PM)
Low27 °F (Sep 21, 3:30 AM)31% (Sep 21, 1:30 PM)29.56 "Hg (Sep 15, 2:00 PM)
Average45 °F72%29.91 "Hg
* Reported Sep 7 2:00 AM — Sep 22 2:00 AM, Yakutsk, Weather by CustomWeather, © 2014

Note: Actual official high and low records may vary slightly from our data, if they occured in-between our weather recording intervals... More about our weather records

Advertising

Yakutsk weather history for previous 24 hours

 ConditionsComfort  
Time TempWeatherWind HumidityBarometerVisibility
2:00 AM
Sep 22
43 °FPassing clouds.6 mph76%29.80 "HgN/A
1:30 AM43 °FPassing clouds.8 mph76%29.80 "HgN/A
1:00 AM43 °FPassing clouds.6 mph76%29.83 "HgN/A
12:30 AM43 °FPassing clouds.6 mph76%29.83 "HgN/A
12:00 AM43 °FPassing clouds.3 mph76%29.83 "HgN/A
11:30 PM
Sep 21
41 °FClear.6 mph81%29.83 "Hg10 mi
11:00 PM41 °FClear.3 mph81%29.80 "Hg10 mi
10:30 PM41 °FClear.3 mph81%29.80 "Hg10 mi
10:00 PM41 °FClear.3 mph81%29.83 "Hg10 mi
9:30 PM41 °FClear.6 mph76%29.80 "Hg10 mi
9:00 PM43 °FClear.3 mph71%29.80 "Hg10 mi
8:30 PM45 °FClear.6 mph66%29.80 "Hg10 mi
8:00 PM46 °FSunny.8 mph57%29.80 "Hg10 mi
7:30 PM48 °FSunny.10 mph50%29.80 "Hg10 mi
7:00 PM50 °FSunny.10 mph47%29.77 "Hg10 mi
6:30 PM54 °FSunny.6 mph44%29.77 "Hg10 mi
6:00 PM54 °FSunny.8 mph44%29.77 "Hg10 mi
5:30 PM55 °FSunny.8 mph41%29.74 "Hg10 mi
5:00 PM57 °FSunny.10 mph39%29.74 "Hg10 mi
4:30 PM57 °FSunny.8 mph39%29.74 "Hg10 mi
4:00 PM59 °FSunny.8 mph34%29.74 "Hg10 mi
3:30 PM59 °FPassing clouds.6 mph34%29.74 "HgN/A
3:00 PM59 °FSunny.6 mph34%29.74 "Hg10 mi
2:30 PM59 °FSunny.6 mph34%29.74 "Hg10 mi
2:00 PM59 °FSunny.8 mph31%29.74 "Hg10 mi
1:30 PM59 °FSunny.6 mph31%29.74 "Hg10 mi
1:00 PM57 °FSunny.8 mph33%29.74 "Hg10 mi
12:30 PM55 °FSunny.8 mph38%29.74 "Hg10 mi
12:00 PM54 °FSunny.8 mph38%29.74 "Hg10 mi
11:30 AM52 °FSunny.6 mph44%29.77 "Hg10 mi
11:00 AM48 °FSunny.3 mph46%29.77 "Hg10 mi
10:30 AM46 °FSunny.3 mph50%29.77 "Hg10 mi
10:00 AM45 °FSunny.3 mph53%29.77 "Hg10 mi
9:30 AM41 °FSunny.6 mph66%29.77 "Hg10 mi
9:00 AM39 °FSunny.3 mph70%29.77 "Hg10 mi
8:30 AM37 °FSunny.6 mph70%29.77 "Hg10 mi
8:00 AM36 °FSunny.3 mph75%29.80 "Hg10 mi
7:30 AM28 °FClear.No wind93%29.80 "Hg10 mi
7:00 AM27 °FClear.No wind100%29.80 "Hg10 mi
6:30 AM28 °FClear.1 mph93%29.80 "Hg10 mi
6:00 AM27 °FClear.No wind93%29.80 "Hg10 mi
5:30 AM27 °FClear.1 mph93%29.80 "Hg10 mi
5:00 AM27 °FClear.No wind93%29.80 "Hg10 mi
4:30 AM28 °FClear.No wind86%29.80 "Hg10 mi
4:00 AM30 °FClear.1 mph86%29.83 "Hg10 mi
3:30 AM27 °FClear.1 mph100%29.83 "Hg10 mi
Weather by CustomWeather, © 2014

See weather overviewHow to use our weather pages